• In Romania
  • List of Countries
  • For 7 days
  • Water Temperature
  • Satellite Maps
  • Weather Map
  • Weather Widgets
  • user-avatar
    Login

    Hourly Weather Lebyazhe

    Today, 25 September, Tuesday

    Time Temperature Precipitation Wind Pressure Humidity
    00:00 +11°C° 0.1 mm 6 mps 745 mmHg 58%
    01:00 +11°C° 0 mm 6 mps 745 mmHg 57%
    02:00 +11°C° 0 mm 6 mps 744 mmHg 57%
    03:00 +11°C° 0 mm 6 mps 743 mmHg 57%
    04:00 +11°C° 0.2 mm 6 mps 743 mmHg 62%
    05:00 +11°C° 0.2 mm 6 mps 743 mmHg 68%
    06:00 +11°C° 0.2 mm 6 mps 742 mmHg 74%
    07:00 +12°C° 1.2 mm 5 mps 742 mmHg 79%
    08:00 +11°C° 1.2 mm 4 mps 742 mmHg 84%
    09:00 +11°C° 1.2 mm 4 mps 742 mmHg 89%
    10:00 +12°C° 0.7 mm 4 mps 743 mmHg 86%
    11:00 +12°C° 0.7 mm 5 mps 743 mmHg 83%
    12:00 +12°C° 0.7 mm 5 mps 743 mmHg 79%
    13:00 +12°C° 0.1 mm 5 mps 744 mmHg 76%
    14:00 +12°C° 0.1 mm 5 mps 744 mmHg 73%
    15:00 +12°C° 0.1 mm 5 mps 745 mmHg 70%
    16:00 +11°C° 0 mm 4 mps 745 mmHg 72%
    17:00 +11°C° 0 mm 4 mps 746 mmHg 73%
    18:00 +10°C° 0 mm 3 mps 746 mmHg 75%
    19:00 +10°C° 0 mm 3 mps 747 mmHg 78%
    20:00 +9°C° 0 mm 3 mps 747 mmHg 81%
    21:00 +8°C° 0 mm 3 mps 748 mmHg 84%
    22:00 +8°C° 0 mm 3 mps 748 mmHg 85%
    23:00 +7°C° 0 mm 3 mps 749 mmHg 86%

    Tomorrow, 26 September, Wednesday

    Time Temperature Precipitation Wind Pressure Humidity
    00:00 +7°C° 0 mm 3 mps 749 mmHg 87%
    01:00 +7°C° 0 mm 3 mps 749 mmHg 87%
    02:00 +5°C° 0 mm 3 mps 750 mmHg 88%
    03:00 +5°C° 0 mm 3 mps 750 mmHg 88%
    04:00 +4°C° 0 mm 3 mps 751 mmHg 89%
    05:00 +4°C° 0 mm 3 mps 751 mmHg 90%
    06:00 +4°C° 0 mm 3 mps 752 mmHg 90%
    07:00 +5°C° 0 mm 3 mps 752 mmHg 85%
    08:00 +6°C° 0 mm 4 mps 753 mmHg 79%
    09:00 +7°C° 0 mm 4 mps 753 mmHg 73%
    10:00 +10°C° 0 mm 4 mps 754 mmHg 68%
    11:00 +11°C° 0 mm 4 mps 754 mmHg 62%
    12:00 +12°C° 0 mm 4 mps 755 mmHg 57%
    13:00 +12°C° 0 mm 4 mps 755 mmHg 55%
    14:00 +12°C° 0 mm 4 mps 755 mmHg 54%
    15:00 +12°C° 0 mm 4 mps 755 mmHg 53%
    16:00 +11°C° 0 mm 4 mps 755 mmHg 56%
    17:00 +10°C° 0 mm 3 mps 756 mmHg 60%
    18:00 +9°C° 0 mm 3 mps 756 mmHg 64%
    19:00 +8°C° 0 mm 3 mps 756 mmHg 67%
    20:00 +7°C° 0 mm 2 mps 756 mmHg 70%
    21:00 +6°C° 0 mm 2 mps 757 mmHg 73%
    22:00 +6°C° 0 mm 2 mps 757 mmHg 74%
    23:00 +6°C° 0 mm 2 mps 756 mmHg 76%

    Day after tomorrow, 27 September, Thursday

    Time Temperature Precipitation Wind Pressure Humidity
    00:00 +5°C° 0 mm 2 mps 756 mmHg 77%
    01:00 +4°C° 0 mm 3 mps 756 mmHg 77%
    02:00 +4°C° 0 mm 3 mps 756 mmHg 77%
    03:00 +4°C° 0 mm 4 mps 756 mmHg 77%
    04:00 +4°C° 0 mm 4 mps 755 mmHg 77%
    05:00 +4°C° 0 mm 4 mps 755 mmHg 77%
    06:00 +3°C° 0 mm 5 mps 754 mmHg 77%
    07:00 +4°C° 0 mm 6 mps 754 mmHg 70%
    08:00 +5°C° 0 mm 7 mps 753 mmHg 63%
    09:00 +6°C° 0 mm 8 mps 753 mmHg 56%
    10:00 +6°C° 0.1 mm 8 mps 752 mmHg 56%
    11:00 +7°C° 0.1 mm 9 mps 752 mmHg 56%
    12:00 +7°C° 0.1 mm 9 mps 751 mmHg 55%
    13:00 +7°C° 0.4 mm 9 mps 751 mmHg 58%
    14:00 +7°C° 0.4 mm 9 mps 750 mmHg 61%
    15:00 +6°C° 0.4 mm 8 mps 750 mmHg 64%
    16:00 +7°C° 0.3 mm 8 mps 749 mmHg 68%
    17:00 +7°C° 0.3 mm 8 mps 749 mmHg 72%
    18:00 +7°C° 0.3 mm 8 mps 749 mmHg 75%
    19:00 +8°C° 0.2 mm 7 mps 749 mmHg 77%
    20:00 +8°C° 0.2 mm 7 mps 749 mmHg 80%
    21:00 +8°C° 0.2 mm 7 mps 749 mmHg 82%
    22:00 +8°C° 0.1 mm 7 mps 749 mmHg 84%
    23:00 +8°C° 0.1 mm 6 mps 749 mmHg 86%

    28 September, Friday

    Time Temperature Precipitation Wind Pressure Humidity
    00:00 +8°C° 0.1 mm 5 mps 749 mmHg 88%
    01:00 +8°C° 0 mm 5 mps 749 mmHg 90%
    02:00 +7°C° 0 mm 5 mps 750 mmHg 92%
    03:00 +7°C° 0 mm 4 mps 750 mmHg 94%
    04:00 +6°C° 0 mm 4 mps 750 mmHg 94%
    05:00 +7°C° 0 mm 3 mps 751 mmHg 95%
    06:00 +5°C° 0 mm 3 mps 751 mmHg 95%
    07:00 +8°C° 0 mm 3 mps 751 mmHg 89%
    08:00 +8°C° 0 mm 4 mps 751 mmHg 82%
    09:00 +11°C° 0 mm 4 mps 752 mmHg 75%
    10:00 +12°C° 0 mm 5 mps 751 mmHg 67%
    11:00 +13°C° 0 mm 5 mps 751 mmHg 59%
    12:00 +15°C° 0 mm 5 mps 751 mmHg 51%
    13:00 +15°C° 0 mm 6 mps 751 mmHg 50%
    14:00 +16°C° 0 mm 6 mps 750 mmHg 49%
    15:00 +16°C° 0 mm 7 mps 750 mmHg 48%
    16:00 +16°C° 0 mm 6 mps 749 mmHg 54%
    17:00 +15°C° 0 mm 6 mps 749 mmHg 60%
    18:00 +14°C° 0 mm 5 mps 748 mmHg 66%
    19:00 +14°C° 0 mm 5 mps 748 mmHg 69%
    20:00 +14°C° 0 mm 6 mps 748 mmHg 72%
    21:00 +13°C° 0 mm 6 mps 748 mmHg 76%
    22:00 +13°C° 0 mm 6 mps 748 mmHg 78%
    23:00 +13°C° 0 mm 6 mps 747 mmHg 79%

    29 September, Saturday

    Time Temperature Precipitation Wind Pressure Humidity
    00:00 +13°C° 0 mm 6 mps 747 mmHg 81%
    01:00 +13°C° 0 mm 6 mps 747 mmHg 83%
    02:00 +13°C° 0 mm 6 mps 747 mmHg 84%
    03:00 +13°C° 0 mm 6 mps 747 mmHg 86%
    04:00 +13°C° 0 mm 5 mps 748 mmHg 87%
    05:00 +13°C° 0 mm 4 mps 748 mmHg 87%
    06:00 +13°C° 0 mm 4 mps 748 mmHg 87%
    07:00 +13°C° 0 mm 4 mps 749 mmHg 85%
    08:00 +12°C° 0 mm 3 mps 749 mmHg 82%
    09:00 +12°C° 0 mm 3 mps 750 mmHg 79%
    10:00 +12°C° 0 mm 3 mps 750 mmHg 76%
    11:00 +12°C° 0 mm 3 mps 750 mmHg 72%
    12:00 +14°C° 0 mm 2 mps 751 mmHg 69%
    13:00 +14°C° 0 mm 2 mps 751 mmHg 68%
    14:00 +14°C° 0 mm 2 mps 751 mmHg 67%
    15:00 +14°C° 0 mm 1 mps 751 mmHg 65%
    16:00 +13°C° 0 mm 2 mps 751 mmHg 67%
    17:00 +13°C° 0 mm 2 mps 751 mmHg 68%
    18:00 +12°C° 0 mm 2 mps 751 mmHg 70%
    19:00 +12°C° 0.3 mm 2 mps 752 mmHg 70%
    20:00 +10°C° 0.3 mm 3 mps 752 mmHg 69%
    21:00 +10°C° 0.3 mm 3 mps 752 mmHg 69%
    22:00 +9°C° 0.5 mm 3 mps 753 mmHg 69%
    23:00 +8°C° 0.5 mm 4 mps 753 mmHg 69%

    30 September, Sunday

    Time Temperature Precipitation Wind Pressure Humidity
    00:00 +7°C° 0.5 mm 4 mps 753 mmHg 70%
    01:00 +7°C° 0.3 mm 4 mps 753 mmHg 69%
    02:00 +7°C° 0.3 mm 4 mps 754 mmHg 69%
    03:00 +7°C° 0.3 mm 4 mps 754 mmHg 69%
    04:00 +6°C° 0.1 mm 4 mps 754 mmHg 69%
    05:00 +6°C° 0.1 mm 4 mps 754 mmHg 70%
    06:00 +5°C° 0.1 mm 4 mps 755 mmHg 70%
    07:00 +6°C° 0 mm 4 mps 755 mmHg 67%
    08:00 +7°C° 0 mm 5 mps 756 mmHg 64%
    09:00 +7°C° 0 mm 5 mps 756 mmHg 61%
    10:00 +8°C° 0 mm 5 mps 756 mmHg 57%
    11:00 +9°C° 0 mm 5 mps 757 mmHg 52%
    12:00 +10°C° 0 mm 6 mps 757 mmHg 48%
    13:00 +10°C° 0 mm 5 mps 757 mmHg 47%
    14:00 +12°C° 0 mm 5 mps 757 mmHg 47%
    15:00 +12°C° 0 mm 5 mps 757 mmHg 46%
    16:00 +11°C° 0 mm 4 mps 757 mmHg 50%
    17:00 +8°C° 0 mm 4 mps 757 mmHg 53%
    18:00 +8°C° 0 mm 3 mps 757 mmHg 57%
    19:00 +7°C° 0 mm 3 mps 758 mmHg 58%
    20:00 +7°C° 0 mm 3 mps 758 mmHg 59%
    21:00 +5°C° 0 mm 3 mps 758 mmHg 60%
    22:00 +4°C° 0 mm 3 mps 758 mmHg 60%
    23:00 +4°C° 0 mm 3 mps 758 mmHg 61%
    Show more